Torna al catalogo

STARLINK-37338

AttivoComunicazioniSSO
NORAD 68739·PAYLOAD·🇺🇸 United States

Lanciato Apr 15, 2026 da Vandenberg Space Force Base

Loading…

Prossimi Passaggi (prossime 24 ore)

TLE

AggiornatoSource: CelesTrak SupGP

Epoca: Sep 15, 2026, 03:51 UTC

1 68739C 26082M   26258.16090278 -.00021074  00000+0 -65396-3 0  2582
2 68739  97.2848 120.3708 0002524  94.8306   0.9547 15.33458385    18

Traccia STARLINK-37338 in tempo reale con AllMySat

Download on the App Store